Regional Weather Roundup
Issued by NWS

Home | Current Version | Previous Version | Text Only | Print | Product List | Glossary Off
Versions: 1 2 3 4 5 6 7 8 9 10 11 12 13 14 15 16 17 18 19 20 21 22 23 24 25 26 27 28 29 30 31 32 33 34 35 36 37 38 39 40 41 42 43 44 45 46 47 48 49 50

000
ASUS44 KMEG 231800
RWRTN
TENNESSEE HOURLY STATE WEATHER ROUNDUP
NATIONAL WEATHER SERVICE MEMPHIS TN
100 PM CDT THU MAR 23 2017

TNZ002-004-019-021-049-052-054-088>092-231900-
WEST TENNESSEE

CITY           SKY/WX    TMP DP  RH WIND       PRES   REMARKS
MEMPHIS INTL   NOT AVBL
NWS MEMPHIS      N/A     73 N/A N/A MISG        N/A
JACKSON        SUNNY     70  38  31 VRB5      30.25F
DYERSBURG      SUNNY     62  39  42 E6        30.25F
PARIS          CLOUDY    46  34  61 SE12      30.29F
$$

TNZ008-025-027-028-033-062-065-066-231900-
NORTH MIDDLE TENNESSEE

CITY           SKY/WX    TMP DP  RH WIND       PRES   REMARKS
NASHVILLE      CLOUDY    56  33  42 CALM      30.34F
CLARKSVILLE    LGT RAIN  44  36  73 SE9       30.32F
SMYRNA         CLOUDY    59  36  42 N3        30.34F
CROSSVILLE     MOSUNNY   58  32  37 S10G21    30.37F
$$

TNZ061-075-076-078-094-096-097-231900-
SOUTH MIDDLE TENNESSEE

CITY           SKY/WX    TMP DP  RH WIND       PRES   REMARKS
TULLAHOMA      SUNNY     63  36  36 S8        30.34F
WINCHESTER     SUNNY     66  37  34 S13       30.33F
MCMINNVILLE    SUNNY     64  36  34 VRB7      30.34F
COLUMBIA       SUNNY     68  46  45 VRB6      30.28F
SHELBYVILLE    SUNNY     64  43  45 S6        30.34S
$$

TNZ017-018-042-046-047-231900-
NORTHEAST TENNESSEE

CITY           SKY/WX    TMP DP  RH WIND       PRES   REMARKS
TRI CITIES     MOSUNNY   59  24  26 VRB3      30.41F
$$

TNZ012-013-036-069-073-074-231900-
CENTRAL EAST TENNESSEE

CITY           SKY/WX    TMP DP  RH WIND       PRES   REMARKS
KNOXVILLE      PTSUNNY   62  31  31 W10       30.38F
OAK RIDGE      SUNNY     63  29  27 S8        30.40F
GATLINBURG     SUNNY     63  28  27 VRB3      30.38F
$$

TNZ083-085-099-231900-
SOUTHEAST TENNESSEE

CITY           SKY/WX    TMP DP  RH WIND       PRES   REMARKS
CHATTANOOGA    PTSUNNY   64  34  32 SE14G21   30.38F
$$

SKY/WX REPORTED AS FAIR MEANS FEW OR NO CLOUDS BELOW
12 THOUSAND FEET.





USA.gov is the U.S. government's official web portal to all federal, state and local government web resources and services.